This is the latest recevied weather packets stored in our database for station/object OE5HMR-13. If no packets are shown the sender has not sent any weather packets the latest 10 day(s).
| Time | Temp. | Humidity | Pressure | Rain* | Wind** | Luminosity | Snow |
|---|---|---|---|---|---|---|---|
| 1777917354 | 19.44° C | 36% | 1011.3 hPa | 0 mm | - | - | - |
| 1777913744 | 22.22° C | 30% | 1012.4 hPa | 0 mm | - | - | - |
| 1777912537 | 23.33° C | 24% | 1012.4 hPa | 0 mm | - | - | - |
| 1777911934 | 23.89° C | 23% | 1012.4 hPa | 0 mm | - | - | - |
| 1777910155 | 24.44° C | 23% | 1012.4 hPa | 0 mm | - | - | - |
| 1777908347 | 24.44° C | 24% | 1012.4 hPa | 0 mm | - | - | - |
| 1777901738 | 25° C | 27% | 1013.4 hPa | 0 mm | - | - | - |
| 1777899357 | 25° C | 30% | 1014.5 hPa | 0 mm | - | - | - |
| 1777892134 | 23.33° C | 36% | - | 0 mm | - | - | - |
| 1777890935 | 22.78° C | 37% | 1014.5 hPa | 0 mm | - | - | - |
| 1777886136 | 20.56° C | 46% | 1014.5 hPa | 0 mm | - | - | - |
| 1777883740 | 18.89° C | 46% | 1014.5 hPa | 0 mm | - | - | - |
| 1777877144 | 15° C | 58% | 1013.4 hPa | 0 mm | - | - | - |
| 1777875934 | 13.89° C | 63% | 1013.4 hPa | 0 mm | - | - | - |
| 1777874739 | 12.22° C | 63% | 1013.4 hPa | 0 mm | - | - | - |
| 1777873535 | 11.11° C | 64% | 1013.4 hPa | 0 mm | - | - | - |
| 1777866962 | 8.89° C | 58% | 1012.4 hPa | 0 mm | - | - | - |
| 1777856137 | 8.89° C | 55% | 1012.4 hPa | 0 mm | - | - | - |
| 1777850131 | 11.67° C | 50% | 1012.4 hPa | 0 mm | - | - | - |
| 1777848953 | 11.67° C | 49% | 1012.4 hPa | 0 mm | - | - | - |
| 1777847730 | 12.22° C | 48% | 1012.4 hPa | 0 mm | - | - | - |
| 1777844755 | 12.22° C | 46% | 1013.3 hPa | 0 mm | - | - | - |
| 1777844136 | 12.22° C | 45% | 1012.4 hPa | 0 mm | - | - | - |
| 1777840540 | 14.44° C | 40% | 1013.4 hPa | 0 mm | - | - | - |
| 1777839948 | 15° C | 39% | 1013.4 hPa | 0 mm | - | - | - |
* Rain latest hour (hover to see other rain measurements)
** Current wind speed in m/s (hover to see current wind gust speed)